{"data":{"norad_id":64412,"intl_designator":"2025-129A","name":"STARLINK-34419","alt_names":[],"object_type":"PAYLOAD","status":"ACTIVE","operator":null,"country":"US","launch_date":"2025-06-17","launch_site_code":"AFWTR","launch_vehicle":null,"mission":null,"orbit_class":"UNKNOWN","rcs_meters":null,"size_class":null,"mass_kg":null,"dimensions":null,"purposes":["comms"],"wikipedia_slug":null,"has_3d_model":false,"image_url":null,"decayed_at":null,"tle_current":{"epoch":"2026-05-24T23:55:58.118016Z","epoch_age_seconds":65468,"freshness":"FRESH","line1":"1 64412U 25129A   26144.99720044  .00002223  00000+0  19402-3 0  9995","line2":"2 64412  70.0008 242.1993 0003525 269.9249  90.1506 14.98334541 52730","mean_motion":14.98334541,"eccentricity":0.0003525,"inclination_deg":70.0008,"raan_deg":242.1993,"arg_perigee_deg":269.9249,"mean_anomaly_deg":90.1506,"bstar":0.00019402,"rev_number":5273,"period_min":96.106707854371,"perigee_km":569.59191026794,"apogee_km":574.491786356,"semimajor_km":6950.178848312,"source":"CELESTRAK","updated_at":"2026-05-25T13:38:20.416349Z"}}}